Tracking 19634 objects as of 21-May-2019
HD Live streaming from Space Station
objects crossing your sky now

YZ-1S DEB

Track YZ-1S DEB now!
10-day predictions


NORAD ID: 43644
Int'l Code: 2018-077C
Perigee: 695.8 km
Apogee: 706.0 km
Inclination: 98.2 °
Period: 98.6 minutes
Semi major axis: 7071 km
RCS: Unknown
Launch date: October 9, 2018
Source: People's Republic of China (PRC)
Launch site: Jiuquan Satellite Launch Center, China (JSC)

Note: This is SATELLITE DEBRIS
aabbcc
Your satellite tracking list
Your tracking list is empty




NASA's NSSDC Master Catalog

Two Line Element Set (TLE):
1 43644U 18077C   19140.61363073 +.00000257 +00000-0 +63596-4 0  9995
2 43644 098.2474 195.3629 0007207 274.4746 085.5630 14.59827640032606
Source of the keplerian elements: AFSPC